metlocid,date_time,avg_airt3m,std_airt3m,min_airt3m,max_airt3m,n_airt3m,n_comments
VAAM,11/1/94,-6.832610626,2.629897393,-11.38,1.73,452,1
VAAM,12/1/94,-0.871060886,2.676147005,-9.61,5.89,2168,0
VAAM,1/1/95,-0.893149392,2.177741176,-5.86,5.28,743,0
VAAM,2/1/95,-5.508288688,4.498133992,-18.86,6.65,672,0
VAAM,3/1/95,-24.01778222,9.226302228,-39,-4.93,744,0
VAAM,4/1/95,-31.37205555,8.377048112,-45.06,-7.57,720,0
VAAM,5/1/95,-31.25219085,9.527288634,-47.32,-8.04,744,0
VAAM,6/1/95,-27.77215281,12.42828205,-49.81,-3.71,720,0
VAAM,7/1/95,-28.47551072,9.088355807,-45.15,-7.99,744,0
VAAM,8/1/95,-28.60008062,10.24216257,-45.73,-6.02,744,0
VAAM,9/1/95,-30.75891668,12.62019556,-49.69,-8.18,720,0
VAAM,10/1/95,-18.04572578,5.315328586,-31.42,-6.27,744,0
VAAM,11/1/95,-2.588726884,4.779590815,-22.21,6.13,1406,0
VAAM,12/1/95,1.28981519,2.558439024,-5.27,9.94,2976,0
VAAM,1/1/96,-0.417799463,2.298774409,-6.47,7.44,2972,0
VAAM,2/1/96,-5.234159488,5.371844364,-18.06,6.78,2784,0
VAAM,3/1/96,-16.18619961,7.190563342,-32.53,1.8,2976,0
VAAM,4/1/96,-20.07943403,9.891487907,-36.05,-0.15,2880,0
VAAM,5/1/96,-35.41577288,7.153054705,-49.19,-9.93,2976,0
VAAM,6/1/96,-33.03274306,11.21956288,-48.48,-4.93,2880,0
VAAM,7/1/96,-28.68158605,10.59276788,-46.24,-8.03,2976,0
VAAM,8/1/96,-25.03940191,12.75837746,-43.72,1.77,2976,0
VAAM,9/1/96,-32.89354169,8.556075589,-43.49,-11.37,2880,0
VAAM,10/1/96,-19.32085014,6.748153575,-40.53,-6.16,2976,0
VAAM,11/1/96,-4.514960057,5.117402812,-21.84,6.79,2879,0
VAAM,12/1/96,1.257953631,2.355974623,-4.39,7.69,2976,0
VAAM,1/1/97,-0.223212367,2.661180295,-5.76,7.14,2976,0
VAAM,2/1/97,-8.414397324,4.339897528,-20.16,0.66,2688,0
VAAM,3/1/97,-24.03128698,7.304199414,-37.59,-8.17,2976,0
VAAM,4/1/97,-32.11557642,10.57255804,-47.05,-6.48,2880,0
VAAM,5/1/97,-28.3171371,13.15416829,-49.97,-4.65,2976,0
VAAM,6/1/97,-25.01616667,10.50114105,-48.1,-6.17,2880,0
VAAM,7/1/97,-37.33030242,9.978225397,-52.03,-15.6,2976,0
VAAM,8/1/97,-36.0576882,12.34931289,-50.28,-9.59,2976,0
VAAM,9/1/97,-28.39432985,12.43588334,-50.18,0.49,2880,0
VAAM,10/1/97,-13.63066666,6.705313273,-33.14,-2.42,2730,0
VAAM,11/1/97,-0.168064117,3.727679068,-7.66,6.9,811,0
VAAM,12/1/97,-0.916666669,3.295520907,-8.09,7.64,2976,0
VAAM,1/1/98,-1.235573113,2.501866153,-8.07,4.13,2975,0
VAAM,2/1/98,-5.388556547,4.023997417,-16.77,4.61,2688,0
VAAM,3/1/98,-24.50331654,6.885241211,-39.62,-6.94,2976,0
VAAM,4/1/98,-36.8385278,12.01292273,-53.72,-4.39,2880,0
VAAM,5/1/98,-30.1471035,11.03214177,-46.75,-2.93,2976,0
VAAM,6/1/98,-24.29902779,9.166548683,-40.41,-7.01,2880,0
VAAM,7/1/98,-31.31442542,10.00031223,-47.1,-10.28,2976,0
VAAM,8/1/98,-34.12278899,10.69737967,-47.48,-4.49,2976,0
VAAM,9/1/98,-39.17285766,9.424292071,-50.13,-1.17,2880,0
VAAM,10/1/98,-16.29787634,6.222050372,-33.12,-0.34,2976,0
VAAM,11/1/98,-7.185333327,5.044421975,-23.42,3.29,2880,0
VAAM,12/1/98,-0.435551075,2.827467999,-9.09,6.89,2976,0
VAAM,1/1/99,0.707680671,2.674240564,-5.02,7.28,2975,0
VAAM,2/1/99,-6.590539441,5.140086451,-20.33,3.82,2688,0
VAAM,3/1/99,-28.85453529,7.556840278,-43.3,-4.88,2948,0
VAAM,4/1/99,-35.19894447,9.052645556,-47.12,-7.81,2880,0
VAAM,5/1/99,-38.09143481,10.44279661,-51.9,-6.39,2976,0
VAAM,6/1/99,-30.05826391,10.84764588,-44.89,-3.6,2880,0
VAAM,7/1/99,-26.48734544,11.36652947,-43.2,-4.75,2976,0
VAAM,8/1/99,-37.21395163,11.81462201,-52.64,-9.76,2976,0
VAAM,9/1/99,-27.01642016,10.57286007,-49.36,-1.02,2880,0
VAAM,10/1/99,-15.41206318,6.338350915,-34.33,-1.83,2976,0
VAAM,11/1/99,-3.909899306,4.024578914,-17.15,3.72,2880,0
VAAM,12/1/99,-0.497953629,1.966463109,-6.15,5.25,2976,0
VAAM,1/1/00,-0.873991259,2.257050511,-7.72,6.06,2974,2
VAAM,2/1/00,-7.284134342,3.809076058,-18.24,1.16,2784,0
VAAM,3/1/00,-21.50975469,8.630691757,-40.98,-2.95,2976,0
VAAM,4/1/00,-29.00208333,10.99491665,-43.69,0.63,2880,0
VAAM,5/1/00,-32.93070227,10.86405928,-48.69,-5.81,2976,0
VAAM,6/1/00,-33.88393404,13.88831182,-49.33,-0.13,2880,0
VAAM,7/1/00,-25.42306114,10.22804527,-49.83,-3.99,2976,0
VAAM,8/1/00,-29.8125067,12.67881973,-50.71,-6.53,2976,0
VAAM,9/1/00,-26.29690972,12.83657616,-46.26,-4.19,2880,0
VAAM,10/1/00,-20.25210014,6.180086495,-32.49,-3.28,2976,0
VAAM,11/1/00,-4.256857644,5.21300394,-23.33,4.55,2880,0
VAAM,12/1/00,-1.406911962,1.929604331,-5.28,4.44,2976,0
VAAM,1/1/01,-2.19950605,2.966652142,-8.58,5.88,2976,0
VAAM,2/1/01,-5.52701637,3.765903628,-16.48,4.88,2688,0
VAAM,3/1/01,-22.90393817,8.128112612,-35.83,-4.24,2976,0
VAAM,4/1/01,-28.00009817,10.61039028,-45.05,-4.03,2852,28
VAAM,5/1/01,-26.55557126,11.37441195,-43.97,-5.05,2976,0
VAAM,6/1/01,-26.41602775,9.677627036,-42.33,-3.43,2880,0
VAAM,7/1/01,-31.33347111,10.3321172,-46.8,-7.04,2976,0
VAAM,8/1/01,-41.79449929,7.956574457,-52.1,-15,2976,0
VAAM,9/1/01,-32.54258331,10.56342533,-47.66,-4.02,2880,0
VAAM,10/1/01,-18.4944086,8.183848112,-40,-2.46,2976,0
VAAM,11/1/01,-5.758697468,4.179753124,-20.29,2.03,2879,1
VAAM,12/1/01,1.415376345,3.305302925,-7.1,8.98,2976,0
VAAM,1/1/02,1.651108871,3.349694289,-5.34,10.72,2976,0
VAAM,2/1/02,-5.810089292,4.415625008,-17.45,3.93,2688,0
VAAM,3/1/02,-17.34429097,6.055347293,-32.25,-5.1,2976,0
VAAM,4/1/02,-30.1960521,9.789116465,-43.28,-5.36,2880,0
VAAM,5/1/02,-24.64236558,11.06237659,-42.47,-2.07,2976,0
VAAM,6/1/02,-34.02071876,9.927153908,-47.15,-7.5,2880,0
VAAM,7/1/02,-33.00665324,11.28654751,-48.12,-10.33,2976,0
VAAM,8/1/02,-35.61200604,9.032603347,-49.3,-10.09,2976,0
VAAM,9/1/02,-29.56090275,10.15054653,-47.68,-7.33,2880,0
VAAM,10/1/02,-22.5338676,8.070196641,-36.04,-4.03,2976,0
VAAM,11/1/02,-8.74995833,2.567275107,-15.68,-2.66,2880,0
VAAM,12/1/02,-1.607506719,3.054138509,-11.09,4.31,2976,0
VAAM,1/1/03,0.726260081,2.894194192,-7.58,8.02,2976,0
VAAM,2/1/03,-5.942767863,3.2041207,-14.88,1.73,2688,0
VAAM,3/1/03,-21.74768816,7.731474269,-37.88,-5.55,2976,0
VAAM,4/1/03,-32.27446523,8.260856168,-43.06,-1.76,2880,0
VAAM,5/1/03,-22.67066532,12.05835513,-44.5,1.39,2976,0
VAAM,6/1/03,-33.7630347,7.680417728,-46.33,-10.17,2880,0
VAAM,7/1/03,-28.84018816,11.17327635,-45.86,-8.73,2976,0
VAAM,8/1/03,-34.58222443,9.7355257,-52.06,-10.87,2976,0
VAAM,9/1/03,-25.36506598,10.87225697,-48.03,-7.15,2880,2025
VAAM,10/1/03,-15.68469088,6.25464049,-34.74,-1.25,2976,2976
VAAM,11/1/03,-5.649409724,3.973785212,-17.91,5.46,2880,2880
VAAM,12/1/03,1.181233615,3.208309791,-5.84,9.88,2975,719
VAAM,1/1/04,-0.653696236,2.962837431,-7.65,7.08,2976,0
VAAM,2/1/04,-8.248063927,5.410060475,-23.56,1.32,2784,0
VAAM,3/1/04,-30.00321573,6.845283529,-40.36,-9.17,2976,0
VAAM,4/1/04,-30.76655209,8.837076075,-43.88,-8.75,2880,0
VAAM,5/1/04,-35.31832658,12.0975827,-48.71,-4.48,2976,0
VAAM,6/1/04,-26.23327432,11.4297039,-45.39,-6.49,2880,0
VAAM,7/1/04,-39.5357896,10.59980307,-52.74,-10.4,2976,0
VAAM,8/1/04,-28.98895496,10.86415216,-49.83,-6.16,2976,0
VAAM,9/1/04,-29.76699652,8.313601856,-41.35,-7.73,2880,0
VAAM,10/1/04,-19.20982526,8.801876462,-41.01,-3.7,2976,0
VAAM,11/1/04,-4.644354172,4.701297602,-17.77,6.6,2880,0
VAAM,12/1/04,0.912910924,2.021455893,-5.54,6.34,2975,1
VAAM,1/1/05,0.581270161,3.058396561,-8.21,8.53,2976,0
VAAM,2/1/05,-7.970212055,5.805095873,-22.98,3.77,2688,0
VAAM,3/1/05,-26.55468414,7.193769561,-37.49,-3.89,2976,0
VAAM,4/1/05,-32.96195834,7.916895964,-45.53,-10.87,2880,0
VAAM,5/1/05,-26.06551412,10.03371882,-45.06,-4.43,2976,0
VAAM,6/1/05,-28.44168749,10.54796987,-46.5,-2.94,2880,0
VAAM,7/1/05,-34.02829298,11.93214573,-48.22,-0.87,2976,0
VAAM,8/1/05,-30.76529233,9.555110066,-45.73,-7.21,2976,0
VAAM,9/1/05,-30.61784722,13.22137963,-48.12,1.96,2880,0
VAAM,10/1/05,-14.99828628,6.755836794,-31.33,-1.12,2976,0
VAAM,11/1/05,-6.020534728,3.27955834,-15.72,1.4,2880,0
VAAM,12/1/05,1.49420027,2.440099454,-6.27,8.29,2976,0
VAAM,1/1/06,0.016746218,2.521104003,-6.97,7.62,2975,0
VAAM,2/1/06,-6.479687507,4.90429662,-28.22,3.14,2688,0
VAAM,3/1/06,-22.46144152,9.507153047,-40.63,-4.76,2976,0
VAAM,4/1/06,-35.96049655,7.786850527,-47.63,-8.2,2880,0
VAAM,5/1/06,-35.76773852,12.78721907,-52.12,-4.92,2976,0
VAAM,6/1/06,-26.76564933,13.30938823,-48.14,-3.34,2880,0
VAAM,7/1/06,-38.64722779,10.2155591,-50.77,-7.2,2976,0
VAAM,8/1/06,-25.59780579,10.88936121,-42.44,-4.61,2976,0
VAAM,9/1/06,-29.0259896,12.39157075,-47.12,-2.22,2880,0
VAAM,10/1/06,-22.60794354,7.788087147,-41.82,-5.89,2976,0
VAAM,11/1/06,-6.900881943,6.112358644,-20.94,2.98,2880,0
VAAM,12/1/06,-1.787735215,2.747415072,-8.79,5.92,2976,0
VAAM,1/1/07,2.113877686,2.274097921,-4.58,8.56,2976,0
VAAM,2/1/07,-8.630279015,7.442453923,-34.76,1.96,2688,0
VAAM,3/1/07,-20.26222782,7.638857317,-35.11,-2.48,2976,0
VAAM,4/1/07,-29.18104513,9.862890409,-43.67,-6.18,2880,0
VAAM,5/1/07,-27.3930746,12.57807356,-46.46,-1.5,2976,0
VAAM,6/1/07,-24.86989585,10.20378916,-44.17,-2.47,2880,0
VAAM,7/1/07,-27.46441198,10.755381,-46.78,-5.07,2976,0
VAAM,8/1/07,-30.11018818,10.95577671,-44.01,0.33,2976,0
VAAM,9/1/07,-25.83455899,9.366122159,-43.48,-5.31,2880,0
VAAM,10/1/07,-17.88328629,5.93841158,-32.97,-5.36,2976,0
VAAM,11/1/07,-6.409715277,5.141870193,-22.63,2.15,2880,0
VAAM,12/1/07,-0.319627018,3.38943133,-8.44,7.85,2976,0
VAAM,1/1/08,0.200184814,3.003698105,-7.88,7.58,2976,0
VAAM,2/1/08,-8.157579025,3.528565339,-17.06,0.4,2784,0
VAAM,3/1/08,-19.97411963,9.50878687,-37.52,1.21,2976,0
VAAM,4/1/08,-27.50863888,9.069925105,-40.59,-4.15,2880,0
VAAM,5/1/08,-32.34622308,9.166602963,-46.08,-4.94,2976,0
VAAM,6/1/08,-22.33471874,9.396282541,-39.39,-0.73,2880,0
VAAM,7/1/08,-33.83520495,11.17149633,-48.65,-4.7,2976,0
VAAM,8/1/08,-36.71825604,10.25270563,-52.38,-10.67,2976,0
VAAM,9/1/08,-19.36577777,7.768468387,-38.19,-6.93,2880,0
VAAM,10/1/08,-17.60176747,5.971416933,-32.65,-5.57,2976,0
VAAM,11/1/08,-7.18792361,4.033685642,-19.5,1.42,2880,0
VAAM,12/1/08,0.379408206,3.229751371,-8.28,9.78,2974,0
VAAM,1/1/09,-0.146155914,2.217882724,-5.7,7.15,2976,0
VAAM,2/1/09,-9.369646582,6.090190486,-23.31,4.38,2688,0
VAAM,3/1/09,-23.54169017,7.630507947,-35.59,-4.47,2976,0
VAAM,4/1/09,-23.48782291,9.331873351,-38.62,-7.4,2880,0
VAAM,5/1/09,-32.14757726,12.37058278,-47.7,-4.01,2976,0
VAAM,6/1/09,-29.98175343,10.00754241,-49.11,-7.21,2880,0
VAAM,7/1/09,-27.10565858,11.00199071,-42.76,-3.1,2976,0
VAAM,8/1/09,-31.14744959,7.907191185,-42.7,-11.93,2976,0
VAAM,9/1/09,-28.20874654,11.64885131,-49.5,-1.86,2880,0
VAAM,10/1/09,-19.62979503,6.246773782,-33.63,-3.45,2976,0
VAAM,11/1/09,-3.736913198,4.931661335,-17.55,5.55,2880,0
VAAM,12/1/09,0.151471775,2.354989078,-5.58,6.98,2976,0
VAAM,1/1/10,0.167956989,2.167716933,-6.08,5.67,2976,0
VAAM,2/1/10,-8.877328873,7.107853517,-27.59,1.42,2688,0
VAAM,3/1/10,-19.64671037,9.099368219,-38.24,-0.94,2976,0
VAAM,4/1/10,-29.89838887,8.045066968,-43.01,-7.86,2880,0
VAAM,5/1/10,-34.52574933,8.865004014,-48.53,-8.89,2976,0
VAAM,6/1/10,-34.78163192,10.65091062,-47.49,-9.13,2880,0
VAAM,7/1/10,-33.80703631,11.45033519,-49.73,-8.35,2976,0
VAAM,8/1/10,-29.5273925,11.05808243,-50.53,-7.12,2976,0
VAAM,9/1/10,-33.1620347,8.026738827,-47.44,-8.67,2880,0
VAAM,10/1/10,-16.90191532,6.897051104,-42.41,-1.85,2976,0
VAAM,11/1/10,-5.420777783,3.258270888,-13.22,3.59,2880,0
VAAM,12/1/10,1.057227822,3.319577244,-11.05,8.61,2976,0
VAAM,1/1/11,-0.98890457,3.009633878,-10.4,7.23,2976,0
VAAM,2/1/11,-6.303143603,3.559229561,-17.28,1.78,2688,0
VAAM,3/1/11,-21.08659947,6.671891698,-34.02,-3.94,2976,0
VAAM,4/1/11,-24.35182986,9.801467459,-40.49,-0.65,2880,0
VAAM,5/1/11,-31.00777888,9.934216389,-44.86,-4.45,2976,0
VAAM,6/1/11,-26.44892706,13.26521083,-47.61,-5.06,2880,0
VAAM,7/1/11,-27.42074592,13.80672338,-49.41,-1.77,2976,0
VAAM,8/1/11,-25.64289988,13.37946548,-46.75,-3.12,2976,0
VAAM,9/1/11,-24.90401387,9.729502636,-39.7,-4.24,2880,0
VAAM,10/1/11,-16.39612903,6.283016221,-29.94,-4.4,2976,0
VAAM,11/1/11,-3.542395839,3.937293613,-19.18,4,2880,0
VAAM,12/1/11,-1.016397746,2.085549428,-5.3,4.74,1599,0
VAAM,1/1/12,-0.785467538,2.678669442,-6.65,6.81,2449,0
VAAM,2/1/12,-5.389594105,4.167364407,-15.74,4.91,2784,0
VAAM,3/1/12,-18.73359879,5.70434113,-32.89,-5.59,2976,0
VAAM,4/1/12,-29.49570139,9.891630382,-43.95,-2.66,2880,0
VAAM,5/1/12,-20.4764852,10.10258095,-41.02,-1.43,2976,0
VAAM,6/1/12,-29.56867012,9.930417885,-42.97,-4.74,2880,0
VAAM,7/1/12,-34.10427085,10.99728867,-47.98,-11.36,2976,0
VAAM,8/1/12,-26.02908265,10.01090281,-46,-7.51,2976,0
VAAM,9/1/12,-29.73493054,8.884747279,-45.73,-10.5,2880,0
VAAM,10/1/12,-17.63534276,5.852744601,-36.95,-5.74,2976,0
VAAM,11/1/12,-6.264500002,4.285716022,-19.47,2.45,2880,0
VAAM,12/1/12,0.989448925,2.834684654,-5.34,9.25,2976,0
VAAM,1/1/13,0.233534946,2.283005683,-6.7,6.28,2976,0
VAAM,2/1/13,-6.776045385,3.28766948,-15.37,0.2,2688,0
VAAM,3/1/13,-18.83235216,7.43207933,-37.51,-1.7,2976,0
VAAM,4/1/13,-36.84671178,8.94611144,-48.4,-8.38,2880,0
VAAM,5/1/13,-26.80556885,10.05025241,-44.45,-5.1,2918,0
VAAM,6/1/13,-31.57210762,9.524137268,-51.59,-6.18,2880,0
VAAM,7/1/13,-38.29661624,10.59994481,-52.8,-9.26,2976,0
VAAM,8/1/13,-29.29720091,11.21047234,-44.22,-3.47,2976,0
VAAM,9/1/13,-24.41044811,9.517192401,-44.79,-3.21,2678,0
VAAM,10/1/13,-19.05772849,7.50485088,-37.29,-2.43,2976,0
VAAM,11/1/13,-6.827993058,5.785683533,-22.43,6.36,2880,0
VAAM,12/1/13,0.390635081,2.045657299,-4.38,6.01,2976,0
VAAM,1/1/14,1.1674328,2.890482235,-6.85,8.75,2976,2775
VAAM,2/1/14,-6.38590774,4.494672022,-19.03,3.13,2688,2688
VAAM,3/1/14,-20.03011088,7.9192808,-39.02,-7.11,2976,2976
VAAM,4/1/14,-24.68296179,9.225019095,-38.83,-1.13,2880,2880
VAAM,5/1/14,-25.2762836,12.65644705,-43.24,-2.22,2976,2976
VAAM,6/1/14,-30.66288196,10.41200174,-44.99,-5.87,2880,2880
VAAM,7/1/14,-40.52215385,12.13199052,-52.36,-4.47,2976,2976
VAAM,8/1/14,-23.7820363,10.84727819,-45.56,-1.89,2976,2976
VAAM,9/1/14,-21.46581598,9.002717154,-37.29,-2.39,2880,2880
VAAM,10/1/14,-14.00338038,6.439590289,-30.11,-0.39,2976,2976
VAAM,11/1/14,-7.511354174,3.629152339,-18.32,-0.13,2880,2880
VAAM,12/1/14,-1.851623531,2.755639119,-9.5,4.56,2975,2975
VAAM,1/1/15,-0.116045027,2.549510729,-6.5,7.27,2976,2976
VAAM,2/1/15,-4.073385417,3.865452115,-14.96,4.03,2688,2688
VAAM,3/1/15,-23.23681449,8.802981483,-38.01,-6.65,2976,2976
VAAM,4/1/15,-31.02853817,9.538564385,-47.48,-4.58,2880,2880
VAAM,5/1/15,-36.23942202,8.229469305,-48.24,-13.82,2976,2976
VAAM,6/1/15,-33.03436455,10.72571669,-48.03,-7.83,2880,2880
VAAM,7/1/15,-32.13262095,10.45736614,-48.64,-7.64,2976,2976
VAAM,8/1/15,-30.31411625,11.5403768,-47.12,-8.89,2976,2976
VAAM,9/1/15,-30.0887604,9.400406648,-49.37,-10.28,2880,2880
VAAM,10/1/15,-14.02632918,6.120396531,-29.5,-4.27,2242,2242
VAAM,12/1/15,0.55533242,2.358517838,-4.42,6.99,2918,2918
VAAM,1/1/16,0.185701625,2.417475302,-5.37,5.87,1354,1354
VAAM,2/1/16,-8.035915978,4.465459635,-19.27,-0.5,2309,2309
VAAM,3/1/16,-21.82929771,5.849064528,-32.98,-7.42,2976,2976
VAAM,4/1/16,-40.17800004,4.933801775,-45.02,-26.08,1185,1185
VAAM,5/1/16,-27.94042025,11.42697373,-41.22,-3.65,2213,2213
VAAM,6/1/16,-33.78855554,8.645219805,-47.48,-10.56,2880,2880
VAAM,7/1/16,-40.28184588,10.14145488,-51.13,-11.73,2817,2817
VAAM,8/1/16,-33.8353585,12.69191938,-48.17,-3.2,2943,2943
VAAM,9/1/16,-33.10798956,9.607241477,-48.95,-11.98,2880,2880
VAAM,10/1/16,-19.74927083,5.584786894,-33.8,-5.5,2976,2976
VAAM,11/1/16,-4.872361119,4.247505129,-19.09,4,2880,2880
VAAM,12/1/16,0.712089654,2.686884961,-9.25,7.11,2967,2967
VAAM,1/1/17,0.655702288,2.300549585,-6.58,6.15,2976,2976
VAAM,2/1/17,-5.249929312,4.655225955,-17.8,5.39,2688,2688
VAAM,3/1/17,-19.69662634,7.370862357,-36.74,-4.3,2976,2976
VAAM,4/1/17,-31.58005903,7.447559209,-41.43,-10.49,2880,2880
VAAM,5/1/17,-23.97883736,10.92133658,-40,-0.48,2976,2976
VAAM,6/1/17,-31.14373262,10.31299912,-46.83,-5.93,2880,2880
VAAM,7/1/17,-31.12187499,9.5109289,-46.26,-10.14,2976,2976
VAAM,8/1/17,-29.76156585,13.4167023,-48.56,-6.83,2976,2976
VAAM,9/1/17,-32.71656595,9.654386185,-44.88,-8.5,2880,2880
VAAM,10/1/17,-15.41277219,7.247653143,-40.4,-2.06,2976,2976
VAAM,11/1/17,-7.088076388,4.961276788,-18.5,3.49,2880,2880
VAAM,12/1/17,-1.563958828,2.412038783,-8.38,5.1,2963,1665
VAAM,1/1/18,0.392620967,2.771372718,-6.09,6.45,2976,0
VAAM,2/1/18,-7.433125005,4.438303418,-20,0.47,2688,0
VAAM,3/1/18,-17.5841129,7.165696871,-31.58,-1.78,2976,0
VAAM,4/1/18,-24.84103123,9.937186442,-41.74,-3.03,2880,0
VAAM,5/1/18,-33.32597445,10.86562275,-45.57,-3.58,2976,0
VAAM,6/1/18,-25.491684,8.932079904,-46,-6.47,2880,0
VAAM,7/1/18,-29.58255711,14.01662692,-50.33,-8.58,2976,0
VAAM,8/1/18,-33.18562497,13.44117018,-48.47,-3.89,2976,0
VAAM,9/1/18,-26.60839237,9.193825197,-43.7,-7.5,2880,0
VAAM,10/1/18,-12.74018481,7.307603189,-30.48,2.72,2976,0
VAAM,11/1/18,-4.879920139,4.17956949,-14.98,5.1,2880,0
VAAM,12/1/18,1.276687964,2.86539751,-5.91,9.19,2974,0
VAAM,1/1/19,-0.332029571,2.370335592,-5.65,5.86,2976,0
VAAM,2/1/19,-5.11908482,3.239046142,-15.57,1.86,2688,0
VAAM,3/1/19,-16.67584342,6.656208965,-32.5,-2.05,2976,0
VAAM,4/1/19,-27.4602014,11.19404635,-43.46,-3.34,2880,0
VAAM,5/1/19,-25.56589718,9.792514217,-39.81,-4.74,2976,0
VAAM,6/1/19,-26.7905625,11.05365382,-46.18,-5.53,2880,0
VAAM,7/1/19,-24.2214953,11.26607054,-40.5,1.7,2976,0
VAAM,8/1/19,-28.6461727,12.57613271,-47.17,-6.57,2976,0
VAAM,9/1/19,-28.33963195,10.75297698,-43.89,-8.18,2880,0
VAAM,10/1/19,-16.7533703,5.23962619,-29.86,-5.36,2976,0
VAAM,11/1/19,-3.98486806,4.066284359,-14.78,4.81,2880,0
VAAM,12/1/19,0.23088859,2.559450784,-5.66,6.49,2971,529
VAAM,1/1/20,0.228622313,2.543059086,-7.92,9.47,2976,2976
VAAM,2/1/20,-4.217805318,5.1645865,-17.28,8.56,2784,2784
VAAM,3/1/20,-20.46087703,6.331998183,-32.53,-7.02,2976,2976
VAAM,4/1/20,-24.7159618,8.105600441,-39.14,-5.23,2880,2880
VAAM,5/1/20,-33.00213372,7.394673354,-43.31,-6.76,2976,2976
VAAM,6/1/20,-28.06368747,12.61052835,-48.96,-4.11,2880,2880
VAAM,7/1/20,-26.19129702,10.72932073,-44.86,-1.32,2976,2976
VAAM,8/1/20,-26.44745965,9.38927496,-47.34,-3.25,2976,2976
VAAM,9/1/20,-27.66432638,11.63090339,-48.05,-3.51,2880,2880
VAAM,10/1/20,-16.61423387,6.100948183,-28.29,-2.86,2976,2976
VAAM,11/1/20,-5.826291666,5.234217768,-18.21,3.78,2880,2880
VAAM,12/1/20,1.260504031,2.363141282,-6.45,6.49,2976,2976
VAAM,1/1/21,0.736485215,2.514276791,-5.86,7.46,2976,2976
VAAM,2/1/21,-6.825714285,5.791075251,-21.7,3.45,2688,2688
VAAM,3/1/21,-19.90786289,7.902510989,-38.9,-2.46,2976,2976
VAAM,4/1/21,-36.68436106,10.93533375,-53.37,-7.23,2880,2880
VAAM,5/1/21,-33.98129366,13.93183765,-49.98,-5.68,2976,2976
VAAM,6/1/21,-26.70580207,10.37416738,-44.77,-6.65,2880,2880
VAAM,7/1/21,-27.12010079,10.07341627,-42.38,-1.72,2976,2976
VAAM,8/1/21,-33.48616934,13.88415199,-49.88,2.1,2976,2976
VAAM,9/1/21,-25.73899302,9.199674018,-47.42,-7.35,2880,2880
VAAM,10/1/21,-14.42584677,5.453402077,-44.82,-1.35,2976,2976
VAAM,11/1/21,-5.590934026,3.878152655,-17.56,2.04,2880,2880
VAAM,12/1/21,0.607049732,2.966642665,-5.89,8.73,2976,2976
VAAM,1/1/22,0.205349931,2.592321905,-6.87,8.57,2972,2972
VAAM,2/1/22,-3.926655505,5.632089357,-16.79,9.1,2688,2688
VAAM,3/1/22,-16.22758736,9.078593744,-35.09,6.74,2976,2976
VAAM,4/1/22,-30.62907294,11.89421505,-46.9,-7,2880,2880
VAAM,5/1/22,-22.59418685,10.059254,-38.37,-0.18,2976,2976
VAAM,6/1/22,-26.70907985,12.65540398,-45.99,-0.86,2880,2880
VAAM,7/1/22,-22.39267809,9.178478941,-41.88,-4.79,2976,2976
VAAM,8/1/22,-28.89625668,14.05796914,-49.73,-1.53,2976,2976
VAAM,9/1/22,-27.88340624,12.35611536,-47.54,-6.7,2880,2880
VAAM,10/1/22,-14.59614584,5.070149848,-27.73,-2.43,2976,2976
VAAM,11/1/22,-8.933118057,5.444326742,-18.9,5.35,2880,2880
VAAM,12/1/22,-0.967801003,2.263029801,-5.53,5,1196,1196